Fort Leonard Wood, MO

5:04 AM CST on January 19, 2017 (GMT -0600)
Waynesville Regional At Forney Field

Weather History for KTBN - January, 2014

Change the Weather History Date:

Friday, January 10, 2014

  Actual Average Record
Temperature  
Mean Temperature 39 °F -  
Max Temperature 46 °F 39 °F 64 °F (2017)
Min Temperature 32 °F 26 °F -2 °F (1997)
Degree Days  
Heating Degree Days 26    
Moisture  
Dew Point 40 °F    
Average Humidity 100    
Maximum Humidity 100    
Minimum Humidity 97    
Precipitation  
Precipitation 0.91 in - - ()
Snow  
Snow 0.00 in - - ()
Snow Depth 6.00 in    
Sea Level Pressure  
Sea Level Pressure 29.78 in    
Wind  
Wind Speed 10 mph (SSE)    
Max Wind Speed 18 mph    
Max Gust Speed 28 mph    
Visibility 6 miles    
Events Rain , Thunderstorm    
Averages and records for this station are not official NWS values.
T = Trace of Precipitation, MM = Missing Value Source: NWS Daily Summary

Daily Weather History Graph

Daily Weather History Graph

Search for Another Location

Airport or City:

Trip Planner

Search our weather history database for the weather conditions in past years. The results will help you decide how hot, cold, wet, or windy it might be!

Date:

Astronomy

Jan. 10, 2014 Rise Set
Actual Time 7:23 AM CST 5:08 PM CST
Civil Twilight 6:54 AM CST 5:37 PM CST
Nautical Twilight 6:22 AM CST 6:10 PM CST
Astronomical Twilight 5:50 AM CST 6:41 PM CST
Moon 1:11 PM CST (1/10) 2:33 AM CST (1/10)
Length of Visible Light 10h 42m
Length of Day
9h 44m
Waxing Gibbous, 75% of the Moon is Illuminated
Jan 10
Waxing Gibbous
Jan 15
Full
Jan 23
Last Quarter
Jan 30
New
Feb 6
First Quarter

Hourly Weather History & Observations

Time (CST) Temp. Windchill Dew Point Humidity Pressure Visibility Wind Dir Wind Speed Gust Speed Precip Events Conditions
12:23 AM 32.0 °F 24.8 °F 32.0 °F 100% 30.07 in 2.5 mi SE 8.1 mph - N/A   Overcast
12:33 AM 32.0 °F 25.6 °F 32.0 °F 100% 30.06 in 3.0 mi SE 6.9 mph - N/A   Overcast
12:58 AM 32.0 °F 25.6 °F 32.0 °F 100% 30.09 in 2.0 mi SE 6.9 mph - N/A   Overcast
1:03 AM 32.0 °F 24.2 °F 32.0 °F 100% 30.05 in 1.5 mi SE 9.2 mph - N/A   Overcast
1:13 AM 32.0 °F 24.2 °F 32.0 °F 100% 30.04 in 2.0 mi SE 9.2 mph - N/A   Overcast
1:23 AM 32.0 °F 24.2 °F 32.0 °F 100% 30.04 in 1.8 mi SE 9.2 mph - N/A   Overcast
1:58 AM 32.2 °F 25.0 °F 32.2 °F 100% 30.08 in 1.5 mi SSE 8.1 mph - N/A   Overcast
2:18 AM 32.0 °F 24.8 °F 32.0 °F 100% 30.02 in 1.2 mi SE 8.1 mph - N/A   Overcast
2:23 AM 32.0 °F 24.8 °F 32.0 °F 100% 30.02 in 1.0 mi ESE 8.1 mph - N/A   Mist
2:28 AM 32.0 °F 24.2 °F 32.0 °F 100% 30.02 in 1.0 mi SE 9.2 mph - N/A   Mist
2:43 AM 32.0 °F 24.8 °F 32.0 °F 100% 30.02 in 1.0 mi SSE 8.1 mph - N/A   Mist
2:48 AM 32.0 °F 24.8 °F 32.0 °F 100% 30.02 in 1.2 mi SE 8.1 mph - N/A   Overcast
2:58 AM 32.0 °F 24.8 °F 32.0 °F 100% 30.05 in 2.0 mi SE 8.1 mph - N/A   Overcast
3:08 AM 32.0 °F 24.8 °F 32.0 °F 100% 30.01 in 3.0 mi SE 8.1 mph - N/A   Overcast
3:53 AM 32.0 °F 23.6 °F 32.0 °F 100% 29.98 in 2.0 mi SE 10.4 mph - N/A   Overcast
3:58 AM 32.9 °F 25.3 °F 32.9 °F 100% 30.02 in 2.0 mi SSE 9.2 mph - N/A   Overcast
4:58 AM 33.8 °F 26.4 °F 33.8 °F 100% 29.99 in 2.0 mi SSE 9.2 mph - N/A   Overcast
5:58 AM 35.2 °F 28.1 °F 35.2 °F 100% 29.96 in 2.5 mi SSE 9.2 mph - N/A   Overcast
6:03 AM 35.6 °F 26.6 °F 35.6 °F 100% 29.91 in 3.0 mi SSE 13.8 mph - N/A   Overcast
6:58 AM 36.1 °F 27.7 °F 36.1 °F 100% 29.95 in 10.0 mi SSE 12.7 mph - N/A   Overcast
7:43 AM 37.4 °F 29.8 °F 37.4 °F 100% 29.89 in 2.5 mi SSE 11.5 mph - N/A   Overcast
7:53 AM 37.4 °F 29.8 °F 37.4 °F 100% 29.88 in 1.5 mi SSE 11.5 mph - N/A   Overcast
7:58 AM 37.0 °F 28.5 °F 37.0 °F 100% 29.91 in 1.5 mi SSE 13.8 mph - N/A   Overcast
8:13 AM 37.4 °F 30.3 °F 37.4 °F 100% 29.88 in 1.0 mi SSE 10.4 mph - N/A   Mist
8:18 AM 37.4 °F 29.3 °F 37.4 °F 100% 29.88 in 1.0 mi SSE 12.7 mph - N/A   Mist
8:28 AM 37.4 °F 30.3 °F 37.4 °F 100% 29.88 in 0.8 mi SSE 10.4 mph 19.6 mph N/A   Mist
8:35 AM 37.4 °F 29.3 °F 37.4 °F 100% 29.88 in 1.0 mi SSE 12.7 mph 20.7 mph N/A Rain Light Rain
8:40 AM 37.4 °F 29.8 °F 37.4 °F 100% 29.87 in 1.8 mi SSE 11.5 mph 20.7 mph N/A Rain Light Rain
8:44 AM 37.4 °F 28.9 °F 37.4 °F 100% 29.87 in 4.0 mi SSE 13.8 mph 20.7 mph N/A   Overcast
8:58 AM 38.1 °F 30.2 °F 38.1 °F 100% 29.89 in 10.0 mi SSE 12.7 mph - 0.00 in   Overcast
9:10 AM 39.2 °F 31.6 °F 39.2 °F 100% 29.86 in 10.0 mi SSE 12.7 mph - N/A Rain Light Rain
9:20 AM 39.2 °F 31.6 °F 39.2 °F 100% 29.86 in 10.0 mi SSE 12.7 mph - N/A   Overcast
9:25 AM 39.2 °F 31.6 °F 39.2 °F 100% 29.85 in 10.0 mi SSE 12.7 mph 19.6 mph N/A   Overcast
9:30 AM 39.2 °F 31.2 °F 39.2 °F 100% 29.85 in 10.0 mi SSE 13.8 mph 19.6 mph N/A   Overcast
9:35 AM 39.2 °F 31.6 °F 39.2 °F 100% 29.85 in 10.0 mi SSE 12.7 mph - N/A   Overcast
9:58 AM 39.0 °F 31.8 °F 39.0 °F 100% 29.88 in 10.0 mi SSE 11.5 mph - 0.00 in   Overcast
10:36 AM 39.2 °F 30.8 °F 39.2 °F 100% 29.81 in 10.0 mi SSE 15.0 mph - N/A Rain Light Rain
10:41 AM 41.0 °F 33.1 °F 41.0 °F 100% 29.80 in 10.0 mi SSE 15.0 mph - N/A Rain Light Rain
10:45 AM 41.0 °F 33.9 °F 41.0 °F 100% 29.80 in 10.0 mi SSE 12.7 mph - N/A   Overcast
10:58 AM 40.5 °F 32.8 °F 40.5 °F 100% 29.83 in 10.0 mi SSE 13.8 mph - 0.00 in   Overcast
11:18 AM 41.0 °F 32.8 °F 41.0 °F 100% 29.77 in 7.0 mi SSE 16.1 mph - N/A   Light Drizzle
11:30 AM 41.0 °F 33.9 °F 41.0 °F 100% 29.78 in 3.0 mi SSE 12.7 mph - N/A Rain , Thunderstorm Heavy Thunderstorms and Rain
11:45 AM 41.0 °F 33.5 °F 41.0 °F 100% 29.78 in 3.0 mi South 13.8 mph 26.5 mph N/A Rain , Thunderstorm Light Thunderstorms and Rain
11:50 AM 42.8 °F 36.2 °F 42.8 °F 100% 29.77 in 3.0 mi SSE 12.7 mph 23.0 mph N/A   Overcast
11:55 AM 42.8 °F 37.0 °F 42.8 °F 100% 29.78 in 3.0 mi South 10.4 mph - N/A Rain Rain
11:58 AM 42.4 °F 34.7 °F 42.4 °F 100% 29.80 in 3.0 mi SSE 16.1 mph 20.7 mph 0.14 in Rain Rain
12:23 PM 42.8 °F 36.2 °F 42.8 °F 100% 29.74 in 2.0 mi SSE 12.7 mph 20.7 mph N/A Rain Rain
12:33 PM 42.8 °F 35.1 °F 42.8 °F 100% 29.74 in 2.5 mi SSE 16.1 mph - N/A Rain Rain
12:38 PM 41.0 °F 32.2 °F 41.0 °F 100% 29.74 in 1.5 mi SSE 18.4 mph - N/A Rain Heavy Rain
12:43 PM 41.0 °F 32.2 °F 41.0 °F 100% 29.73 in 1.0 mi SSE 18.4 mph 26.5 mph N/A Rain Heavy Rain
12:53 PM 41.0 °F 34.7 °F 41.0 °F 100% 29.73 in 1.5 mi SSE 10.4 mph 26.5 mph N/A Rain Rain
12:58 PM 41.0 °F 34.7 °F 41.0 °F 100% 29.75 in 3.0 mi SSE 10.4 mph - 0.48 in Rain Light Rain
1:58 PM 42.1 °F 36.6 °F 42.1 °F 100% 29.72 in 10.0 mi SSE 9.2 mph - 0.07 in Rain Light Rain
2:33 PM 42.8 °F 37.0 °F 42.8 °F 100% 29.67 in 10.0 mi South 10.4 mph - N/A Rain Light Rain
2:58 PM 43.5 °F 36.7 °F 43.5 °F 100% 29.69 in 8.0 mi South 13.8 mph 20.7 mph 0.05 in   Overcast
3:21 PM 44.6 °F 37.4 °F 44.6 °F 100% 29.62 in 10.0 mi SSE 16.1 mph - N/A   Overcast
3:36 PM 44.6 °F 38.1 °F 44.6 °F 100% 29.62 in 10.0 mi SSE 13.8 mph - N/A   Mostly Cloudy
3:41 PM 44.6 °F 38.1 °F 44.6 °F 100% 29.63 in 10.0 mi South 13.8 mph 27.6 mph N/A   Mostly Cloudy
3:56 PM 46.4 °F 40.4 °F 46.4 °F 100% 29.63 in 10.0 mi South 13.8 mph 21.9 mph N/A   Scattered Clouds
3:58 PM 46.0 °F 39.9 °F 46.0 °F 100% 29.66 in 10.0 mi South 13.8 mph - 0.02 in   Scattered Clouds
4:38 PM 46.4 °F 40.4 °F 46.4 °F 100% 29.61 in 10.0 mi SSE 13.8 mph - N/A   Mostly Cloudy
4:58 PM 45.9 °F 40.0 °F 45.9 °F 100% 29.62 in 10.0 mi South 12.7 mph 19.6 mph N/A   Overcast
5:58 PM 45.9 °F 40.0 °F 45.9 °F 100% 29.61 in 10.0 mi SSE 12.7 mph - N/A   Overcast
6:08 PM 46.4 °F 41.5 °F 46.4 °F 100% 29.59 in 10.0 mi SSE 10.4 mph - N/A   Overcast
6:50 PM 46.4 °F 41.5 °F 46.4 °F 100% 29.58 in 10.0 mi SSE 10.4 mph - N/A Rain Light Rain
6:58 PM 45.7 °F 40.6 °F 45.7 °F 100% 29.60 in 10.0 mi SSE 10.4 mph - 0.00 in Rain Light Rain
7:01 PM 46.4 °F 41.5 °F 46.4 °F 100% 29.57 in 10.0 mi SSE 10.4 mph - N/A   Overcast
7:16 PM 44.6 °F 40.2 °F 44.6 °F 100% 29.57 in 10.0 mi SSE 8.1 mph - N/A   Overcast
7:30 PM 44.6 °F 41.4 °F 44.6 °F 100% 29.60 in 9.0 mi SSW 5.8 mph - N/A Rain Light Rain
7:40 PM 46.4 °F 45.2 °F 46.4 °F 100% 29.60 in 2.5 mi South 3.5 mph - N/A Rain Heavy Rain
7:45 PM 46.4 °F 42.9 °F 46.4 °F 100% 29.60 in 3.0 mi SSE 6.9 mph - N/A Rain Light Rain
7:58 PM 45.3 °F 42.3 °F 45.3 °F 100% 29.61 in 9.0 mi South 5.8 mph - 0.11 in Rain Light Rain
8:03 PM 46.4 °F 42.9 °F 46.4 °F 100% 29.59 in 8.0 mi South 6.9 mph - N/A Rain Light Rain
8:28 PM 46.4 °F 41.9 °F 46.4 °F 100% 29.57 in 10.0 mi SE 9.2 mph - N/A Rain Light Rain
8:33 PM 46.4 °F 41.9 °F 46.4 °F 100% 29.57 in 10.0 mi South 9.2 mph - N/A Rain Light Rain
8:39 PM 46.4 °F 43.5 °F 46.4 °F 100% 29.57 in 10.0 mi Variable 5.8 mph - N/A   Mostly Cloudy
8:58 PM 46.6 °F - 46.6 °F 100% 29.60 in 10.0 mi SW 4.6 mph - 0.04 in   Mostly Cloudy
9:18 PM 46.4 °F 43.5 °F 46.4 °F 100% 29.58 in 10.0 mi Variable 5.8 mph - N/A   Mostly Cloudy
9:38 PM 46.4 °F 42.4 °F 46.4 °F 100% 29.59 in 10.0 mi SW 8.1 mph - N/A   Overcast
9:43 PM 46.4 °F 42.4 °F 46.4 °F 100% 29.59 in 10.0 mi SW 8.1 mph - N/A   Overcast
9:58 PM 46.4 °F 43.5 °F 46.4 °F 100% 29.61 in 10.0 mi Variable 5.8 mph - N/A   Mostly Cloudy
10:03 PM 46.4 °F 43.5 °F 46.4 °F 100% 29.59 in 10.0 mi Variable 5.8 mph - N/A   Mostly Cloudy
10:08 PM 46.4 °F 42.9 °F 46.4 °F 100% 29.59 in 10.0 mi SW 6.9 mph - N/A   Overcast
10:13 PM 46.4 °F 42.4 °F 46.4 °F 100% 29.59 in 10.0 mi SW 8.1 mph - N/A   Mostly Cloudy
10:43 PM 46.4 °F 41.9 °F 46.4 °F 100% 29.60 in 10.0 mi WSW 9.2 mph 17.3 mph N/A   Mostly Cloudy
10:58 PM 44.8 °F 39.0 °F 44.8 °F 100% 29.63 in 10.0 mi WSW 11.5 mph 19.6 mph N/A   Partly Cloudy
11:58 PM 39.9 °F 35.8 °F 39.0 °F 97% 29.65 in 10.0 mi WSW 5.8 mph 16.1 mph N/A   Scattered Clouds